DW1253 Weather Reports


time (UTC)temp
C
wind
direction
speed
KPH
gust
KPH
rain 1hr
cm
rain 24hr
cm
rain mn
cm
humidity
%
barometer
mb
20260504004844 10 218 4.8 17.7 0.00 0.05 0.05 56 1008.4
20260504004344 10 213 6.4 19.3 0.00 0.05 0.05 58 1008.5
20260504003915 10 221 8.0 19.3 0.00 0.05 0.05 56 1008.4
20260504003330 10 255 8.0 22.5 0.00 0.05 0.05 55 1008.5
20260504002850 10 242 9.7 22.5 0.00 0.05 0.05 55 1008.4
20260504002347 10 223 11.3 24.1 0.00 0.05 0.05 55 1008.4
20260504001903 10 223 9.7 24.1 0.00 0.05 0.05 55 1008.3
20260504001334 10 192 9.7 30.6 0.00 0.05 0.05 56 1008.4
20260504000831 10 277 12.9 30.6 0.00 0.05 0.05 55 1008.3
20260504000354 10 228 8.0 30.6 0.00 0.05 0.05 54 1008.3
20260503235837 10 227 6.4 22.5 0.00 0.05 0.05 54 1008.3
20260503235343 10 267 6.4 22.5 0.00 0.05 0.05 54 1008.3
20260503234839 10 267 4.8 29.0 0.00 0.05 0.05 55 1008.3
20260503234340 10 286 8.0 29.0 0.00 0.05 0.05 54 1008.3
20260503233843 10 226 9.7 20.9 0.00 0.05 0.05 54 1008.3
20260503233348 10 226 11.3 20.9 0.00 0.05 0.05 54 1008.3
20260503232836 10 255 8.0 35.4 0.00 0.05 0.05 53 1008.3
20260503232406 10 215 9.7 35.4 0.00 0.05 0.05 53 1008.1
20260503231838 11 232 8.0 25.7 0.00 0.05 0.05 53 1008.4
20260503231347 11 209 8.0 25.7 0.00 0.05 0.05 52 1008.4
20260503230849 11 237 9.7 22.5 0.00 0.05 0.05 52 1008.4
20260503230346 11 246 9.7 22.5 0.00 0.05 0.05 52 1008.4
20260503225836 11 249 4.8 29.0 0.00 0.05 0.05 50 1008.5
20260503225341 11 214 8.0 29.0 0.00 0.05 0.05 49 1008.5
20260503224835 11 242 9.7 29.0 0.00 0.05 0.05 49 1008.5
20260503224333 11 244 11.3 33.8 0.00 0.05 0.05 48 1008.5
20260503223837 11 224 11.3 33.8 0.00 0.05 0.05 48 1008.6
20260503223337 11 278 8.0 17.7 0.00 0.05 0.05 49 1008.8
20260503222843 11 230 8.0 20.9 0.00 0.05 0.05 50 1008.8
20260503222333 11 157 8.0 27.4 0.00 0.05 0.05 49 1008.7
20260503221837 11 69 9.7 29.0 0.00 0.05 0.05 48 1008.7
20260503221344 11 234 11.3 29.0 0.00 0.05 0.05 48 1008.4
20260503220850 11 238 11.3 30.6 0.00 0.05 0.05 50 1008.7
20260503220352 11 300 8.0 30.6 0.00 0.05 0.05 49 1008.5
20260503215839 11 200 9.7 24.1 0.00 0.05 0.05 48 1008.3
20260503215335 11 263 6.4 20.9 0.00 0.05 0.05 48 1008.4
20260503214838 11 188 14.5 25.7 0.00 0.05 0.05 51 1008.3
20260503214355 11 213 11.3 24.1 0.00 0.05 0.05 51 1008.4
20260503213330 11 312 12.9 24.1 0.00 0.05 0.05 50 1008.3
20260503212847 12 265 8.0 19.3 0.00 0.05 0.05 49 1008.3
20260503212349 11 232 9.7 27.4 0.00 0.05 0.05 50 1008.3
20260503210837 12 239 8.0 16.1 0.00 0.05 0.05 49 1008.2
20260503210403 12 209 6.4 30.6 0.00 0.05 0.05 50 1008.3
20260503205853 12 248 6.4 30.6 0.00 0.05 0.05 50 1008.3
20260503205401 12 234 11.3 29.0 0.00 0.05 0.05 48 1008.3
20260503204837 12 223 8.0 24.1 0.00 0.05 0.05 50 1008.3
20260503204334 12 209 9.7 33.8 0.00 0.05 0.05 48 1008.4
20260503203855 12 267 11.3 29.0 0.00 0.05 0.05 48 1008.4
20260503203334 13 260 9.7 27.4 0.00 0.05 0.05 46 1008.5
20260503202840 13 192 6.4 19.3 0.00 0.05 0.05 49 1008.6
20260503202350 13 220 8.0 24.1 0.00 0.05 0.05 47 1008.5
20260503201858 13 212 11.3 24.1 0.00 0.05 0.05 47 1008.6
20260503201352 13 219 11.3 27.4 0.00 0.05 0.05 46 1008.6
20260503200831 13 333 12.9 27.4 0.00 0.05 0.05 45 1008.6
20260503200340 13 237 11.3 27.4 0.00 0.05 0.05 46 1008.6
20260503195831 13 265 9.7 25.7 0.00 0.05 0.05 46 1008.6
20260503195331 13 298 8.0 19.3 0.00 0.05 0.05 46 1008.7
20260503194845 13 200 8.0 19.3 0.00 0.05 0.05 48 1008.9
20260503194338 13 252 8.0 19.3 0.00 0.05 0.05 50 1008.9
20260503193843 13 177 4.8 16.1 0.00 0.05 0.05 50 1009.1
20260503193345 12 234 4.8 16.1 0.00 0.05 0.05 51 1009.1
20260503192846 12 223 8.0 24.1 0.00 0.05 0.05 50 1009.2
20260503192345 12 103 6.4 25.7 0.00 0.05 0.05 50 1009.1
20260503191836 12 5 6.4 24.1 0.00 0.05 0.05 47 1009.2
20260503191339 12 256 9.7 19.3 0.00 0.05 0.05 49 1009.2
20260503190841 12 267 6.4 27.4 0.00 0.05 0.05 49 1009.3
20260503190352 12 279 12.9 27.4 0.00 0.05 0.05 47 1009.3
20260503185838 12 240 9.7 24.1 0.00 0.05 0.05 45 1009.3
20260503185344 12 227 8.0 37.0 0.00 0.05 0.05 46 1009.5
20260503184843 12 245 16.1 37.0 0.00 0.05 0.05 45 1009.3
20260503184347 12 213 16.1 32.2 0.00 0.05 0.05 45 1009.4
20260503183835 12 206 9.7 25.7 0.00 0.05 0.05 47 1009.5
20260503183358 12 248 8.0 25.7 0.00 0.05 0.05 45 1009.6
20260503182846 12 196 8.0 29.0 0.00 0.05 0.05 47 1009.6
20260503182344 12 273 9.7 29.0 0.00 0.05 0.05 45 1009.7
20260503181833 12 195 8.0 25.7 0.00 0.05 0.05 47 1009.7
20260503181353 12 246 12.9 25.7 0.00 0.05 0.05 48 1009.8
20260503180847 12 204 11.3 20.9 0.00 0.05 0.05 48 1009.8
20260503180330 12 251 8.0 25.7 0.00 0.05 0.05 46 1009.8
20260503175838 12 206 4.8 16.1 0.00 0.05 0.05 48 1009.9
20260503175331 11 232 8.0 27.4 0.00 0.05 0.05 46 1010.0
20260503174842 11 249 11.3 27.4 0.00 0.05 0.05 43 1010.2
20260503174352 12 250 11.3 25.7 0.00 0.05 0.05 50 1010.2
20260503173853 11 301 12.9 25.7 0.00 0.05 0.05 41 1010.3
20260503173340 11 238 8.0 27.4 0.00 0.05 0.05 43 1010.5
20260503172905 11 205 14.5 33.8 0.00 0.05 0.05 43 1010.6
20260503172336 11 226 11.3 33.8 0.00 0.05 0.05 42 1010.6
20260503171855 11 200 12.9 24.1 0.00 0.05 0.05 43 1010.7
20260503171411 10 243 8.0 16.1 0.00 0.05 0.05 49 1010.7
20260503170831 10 280 8.0 16.1 0.00 0.05 0.05 46 1010.8
20260503170405 11 238 6.4 17.7 0.00 0.05 0.05 50 1010.8
20260503150837 8 56 3.2 22.5 0.00 0.05 0.05 60 1011.9
20260503150345 8 263 9.7 19.3 0.00 0.05 0.05 61 1011.8
20260503131343 6 241 9.7 19.3 0.00 0.05 0.05 71 1012.0
20260503130858 6 244 6.4 22.5 0.00 0.05 0.05 70 1012.1
20260503130332 6 205 11.3 22.5 0.00 0.05 0.05 71 1012.0
20260503110407 0 214 1.6 4.8 0.00 0.00 0.00 94 1011.7
20260503072857 0 235 3.2 11.3 0.00 0.00 0.00 94 1011.9
20260503072352 0 229 3.2 4.8 0.00 0.00 0.00 94 1011.9
20260503071905 0 229 1.6 6.4 0.00 0.00 0.00 94 1011.9
20260503071353 0 243 3.2 6.4 0.00 0.00 0.00 94 1011.9
20260503070855 0 253 3.2 8.0 0.00 0.00 0.00 94 1011.9
20260503070352 0 245 3.2 8.0 0.00 0.00 0.00 94 1012.0
20260503060336 0 225 4.8 6.4 0.00 0.00 0.00 93 1012.3
20260503054850 0 265 3.2 6.4 0.00 0.00 0.00 93 1012.3
20260503054353 0 243 3.2 6.4 0.00 0.00 0.00 93 1012.3
20260503053844 0 244 3.2 9.7 0.00 0.00 0.00 93 1012.3
20260503053342 0 248 3.2 9.7 0.00 0.00 0.00 93 1012.4
20260503052837 0 236 3.2 8.0 0.00 0.00 0.00 93 1012.4
20260503052355 0 233 3.2 6.4 0.00 0.00 0.00 93 1012.5
20260503051901 0 244 3.2 6.4 0.00 0.00 0.00 93 1012.5
20260503051353 0 240 3.2 6.4 0.00 0.00 0.00 93 1012.5
20260503050850 0 229 3.2 6.4 0.00 0.00 0.00 93 1012.7
20260503050353 0 246 3.2 4.8 0.00 0.00 0.00 93 1012.5
20260503045900 0 246 3.2 9.7 0.00 0.00 0.00 93 1012.6
20260503045412 0 237 3.2 9.7 0.00 0.00 0.00 93 1012.7
20260503044838 0 216 3.2 6.4 0.00 0.00 0.00 93 1012.7
20260503044336 1 227 3.2 4.8 0.00 0.00 0.00 93 1012.7
20260503043836 0 227 3.2 4.8 0.00 0.00 0.00 93 1012.6
20260503043337 1 220 3.2 6.4 0.00 0.00 0.00 93 1012.8
20260503042838 1 219 3.2 6.4 0.00 0.00 0.00 93 1012.7
20260503042346 1 232 3.2 6.4 0.00 0.00 0.00 93 1012.8
20260503041840 1 249 3.2 4.8 0.00 0.00 0.00 93 1012.8
20260503041342 1 249 3.2 4.8 0.00 0.00 0.00 93 1012.8
20260503040859 1 249 1.6 4.8 0.00 0.00 0.00 93 1012.9
20260503040334 1 249 3.2 4.8 0.00 0.00 0.00 93 1012.9
20260503035846 1 229 1.6 4.8 0.00 0.00 0.00 93 1012.9
20260503035337 1 229 1.6 4.8 0.00 0.00 0.00 93 1012.9
20260503034854 1 215 1.6 4.8 0.00 0.00 0.00 93 1012.8
20260503034408 1 244 1.6 4.8 0.00 0.00 0.00 93 1012.9
20260503033837 1 244 1.6 4.8 0.00 0.00 0.00 93 1013.0
20260503033336 1 245 0.0 3.2 0.00 0.00 0.00 93 1012.9
20260503032855 1 244 0.0 0.0 0.00 0.00 0.00 93 1012.8
20260503032335 1 244 0.0 0.0 0.00 0.00 0.00 92 1012.9
20260503031850 1 244 0.0 0.0 0.00 0.00 0.00 92 1012.8
20260503031351 1 244 0.0 1.6 0.00 0.00 0.00 92 1012.9
20260503030906 1 244 1.6 1.6 0.00 0.00 0.00 92 1012.9
20260503030343 1 245 0.0 1.6 0.00 0.00 0.00 91 1013.0
20260503025913 1 244 0.0 4.8 0.00 0.00 0.00 91 1012.9
20260503025413 1 245 1.6 4.8 0.00 0.00 0.00 91 1013.0
20260503024843 1 194 0.0 3.2 0.00 0.00 0.00 90 1013.0
20260503024339 1 194 1.6 3.2 0.00 0.00 0.00 90 1013.1
20260503023855 1 194 0.0 4.8 0.00 0.00 0.00 89 1013.1
20260503023336 1 194 3.2 11.3 0.00 0.00 0.00 88 1013.2
20260503022858 1 242 6.4 11.3 0.00 0.00 0.00 88 1013.4
20260503022338 1 207 4.8 6.4 0.00 0.00 0.00 88 1013.4
20260503021855 1 233 3.2 6.4 0.00 0.00 0.00 88 1013.4
20260503021347 1 224 1.6 4.8 0.00 0.00 0.00 87 1013.4
20260503020842 1 243 3.2 4.8 0.00 0.00 0.00 87 1013.4
20260503020343 1 240 1.6 4.8 0.00 0.00 0.00 86 1013.4
20260503015850 2 240 1.6 6.4 0.00 0.00 0.00 85 1013.5
20260503015351 2 247 3.2 11.3 0.00 0.00 0.00 85 1013.5
20260503014844 2 241 3.2 8.0 0.00 0.00 0.00 85 1013.4
20260503014335 2 232 3.2 6.4 0.00 0.00 0.00 85 1013.4
20260503013837 2 232 3.2 11.3 0.00 0.00 0.00 85 1013.3
20260503013338 2 232 4.8 11.3 0.00 0.00 0.00 84 1013.2
20260503012858 2 244 3.2 9.7 0.00 0.00 0.00 84 1013.2
20260503012337 2 216 3.2 6.4 0.00 0.00 0.00 84 1013.2
20260503011853 2 272 3.2 4.8 0.00 0.00 0.00 84 1013.2
20260503011358 2 229 1.6 4.8 0.00 0.00 0.00 84 1013.2
20260503010859 2 229 1.6 6.4 0.00 0.00 0.00 84 1013.2
20260503010334 2 229 3.2 9.7 0.00 0.00 0.00 84 1013.2
20260503005905 2 225 4.8 9.7 0.00 0.00 0.00 84 1013.1
20260503005340 2 222 3.2 6.4 0.00 0.00 0.00 83 1013.1